CZ-3C DEB, 40201

Orbit data source: Space-Track

CZ-3C DEB, 40201 is space debris in HEO originally from a launch on Fri, 24 Feb 2012 UTC launched from the Xichang Space Center, China (XSC). Debris objects in space refer to the collection of defunct objects orbiting the Earth. Examples of debris include non-operational satellites, rocket bodies, and fragments generated from explosions, collisions, or faulty payload assembly.

Loading next visibility...
Identifier
40201, 2012-008L
Orbit
HEO
Country
Flag of CNCN / PRC
Related business
Manufacturer
CALT
Mission
Spacecraft
Bus & Motor
Unknown
Mass
Unknown
Launch date (UTC)
2012-02-24 (14 years ago)
Launch vehicle
Unknown
Launch site
Xichang Space Center, China (XSC)
Object type
Payload
Rocket body
Debris
Shape & HBR
Unknown shape, 0.3 m
Radar Cross Section
Medium (>0.1 m² and <1 m²)

Expand to show TLE details & history
Last TLE update: 1 week ago

TLE from 1 week ago
0 CZ-3C DEB
1 40201U 12008L   25334.76390315 -.00000091  00000-0 -39276-2 0  9990
2 40201  20.9255 142.6044 7093054 319.9570   5.0542  2.24685542 98736
Epoch: 2025-11-30T18:20Z
TLE epoch observation values (Epoch: 2025-11-30T18:20:01.232Z)
Latitude
-0.0001°
Longitude
157.79248°
Altitude
1,553.248 km
Speed
9.182 km/s
True Right ascension
09h 30m 40s
True Declination
0° 00' 00"
Sunlit
Object was in daylight at epoch
Visualization orbit readout
Latitude
Unknown
Longitude
Unknown
Altitude
Unknown
Speed
Unknown
Apparent Right ascension
Unknown
Apparent Declination
Unknown
Sunlit
N/A
Visualization observer readout
Local Sidereal Time
17:58:03
Azimuth
Unknown
Elevation
Unknown
Doppler factor
Unknown
Orbital elements
Apogee altitude
35,718.221 km
Perigee altitude
781.019 km
Semi-major axis
24,627.757 km
Eccentricity
0.70931
Inclination
20.9255°
RAAN
142.6044°
Arg. of periapsis
319.957°
True anomaly
39.40596°
Mean anomaly
5.0542°
Eccentric anomaly
16.80159°
Mean motion
0.56157 °/min
Orbital period
641.06 mins
BSTAR
-0.0039276
Loading maneuver chart data...
Computing Atmospheric mass density...
Loading historical data...
Loading historical data...
Loading historical data...
Loading historical data...
Loading historical data...
Loading historical data...
Loading historical data...

Documentation

Showing up to 5 results
|